| time (UTC) | temp F | wind direction | speed MPH | gust MPH | rain 1hr in | rain 24hr in | rain mn in | humidity % | barometer mb |
| 20260504020003 | 48 | 90 | 1.0 | 3.0 | 0.00 | 0.02 | 0.03 | 92 | 1005.1 |
| 20260504014503 | 48 | 92 | 1.0 | 3.0 | 0.00 | 0.02 | 0.03 | 92 | 1005.8 |
| 20260504013003 | 48 | 90 | 1.0 | 2.0 | 0.00 | 0.02 | 0.03 | 92 | 1005.8 |
| 20260504010004 | 49 | 51 | 1.0 | 2.0 | 0.00 | 0.02 | 0.03 | 92 | 1005.6 |
| 20260504004503 | 49 | 49 | 2.0 | 3.0 | 0.00 | 0.02 | 0.03 | 92 | 1006.1 |
| 20260504003004 | 49 | 16 | 1.0 | 3.0 | 0.00 | 0.02 | 0.03 | 91 | 1006.1 |
| 20260503234503 | 49 | 163 | 0.0 | 8.0 | 0.03 | 0.02 | 0.03 | 91 | 1006.3 |
| 20260503223003 | 48 | 202 | 4.0 | 5.0 | 0.00 | 0.00 | 0.00 | 85 | 1007.4 |
| 20260503221504 | 48 | 38 | 0.0 | 2.0 | 0.00 | 0.00 | 0.00 | 84 | 1006.9 |
| 20260503214504 | 49 | 24 | 2.0 | 6.0 | 0.00 | 0.00 | 0.00 | 83 | 1007.2 |
| 20260503213004 | 49 | 21 | 4.0 | 6.0 | 0.00 | 0.00 | 0.00 | 83 | 1007.2 |
| 20260503211503 | 49 | 8 | 3.0 | 5.0 | 0.00 | 0.00 | 0.00 | 83 | 1007.2 |
| 20260503204504 | 50 | 11 | 5.0 | 7.0 | 0.00 | 0.00 | 0.00 | 84 | 1007.5 |
| 20260503203004 | 51 | 356 | 5.0 | 7.0 | 0.00 | 0.00 | 0.00 | 85 | 1007.7 |
| 20260503193004 | 51 | 350 | 2.0 | 6.0 | 0.00 | 0.00 | 0.00 | 86 | 1007.6 |
| 20260503191504 | 52 | 12 | 4.0 | 7.0 | 0.00 | 0.00 | 0.00 | 86 | 1007.7 |
| 20260503181505 | 53 | 356 | 5.0 | 7.0 | 0.00 | 0.00 | 0.00 | 83 | 1007.4 |
| 20260503180004 | 54 | 353 | 4.0 | 7.0 | 0.00 | 0.00 | 0.00 | 82 | 1007.0 |
| 20260503081504 | 67 | 240 | 5.0 | 10.0 | 0.00 | 0.00 | 0.00 | 57 | 1008.2 |
| 20260503071505 | 64 | 206 | 3.0 | 10.0 | 0.00 | 0.00 | 0.00 | 60 | 1008.2 |
| 20260503054504 | 59 | 191 | 3.0 | 10.0 | 0.00 | 0.00 | 0.00 | 67 | 1008.7 |
| 20260503053004 | 58 | 206 | 3.0 | 6.0 | 0.00 | 0.00 | 0.00 | 68 | 1008.8 |
| 20260503044503 | 57 | 186 | 3.0 | 5.0 | 0.00 | 0.00 | 0.00 | 71 | 1008.8 |
| 20260503041504 | 55 | 204 | 2.0 | 5.0 | 0.00 | 0.00 | 0.00 | 71 | 1008.6 |
| 20260503040004 | 55 | 182 | 2.0 | 5.0 | 0.00 | 0.00 | 0.00 | 72 | 1008.6 |
| 20260503034504 | 54 | 174 | 1.0 | 3.0 | 0.00 | 0.00 | 0.00 | 73 | 1008.7 |
| 20260503031505 | 55 | 173 | 1.0 | 2.0 | 0.00 | 0.00 | 0.00 | 70 | 1008.7 |
| 20260503030013 | 56 | 189 | 1.0 | 3.0 | 0.00 | 0.00 | 0.00 | 68 | 1008.7 |
| 20260503024504 | 57 | 190 | 1.0 | 3.0 | 0.00 | 0.00 | 0.00 | 67 | 1009.0 |
| 20260503021504 | 58 | 182 | 2.0 | 5.0 | 0.00 | 0.00 | 0.00 | 65 | 1009.0 |